Waukegan, IL

10:02 PM CDT on June 25, 2017 (GMT -0500)
Waukegan Regional

Weather History for KUGN - November, 2013

Change the Weather History Date:

Sunday, November 10, 2013

  Actual Average Record
Temperature  
Mean Temperature 42 °F -  
Max Temperature 49 °F 50 °F 66 °F (2012)
Min Temperature 34 °F 34 °F 22 °F (2008)
Degree Days  
Heating Degree Days 23 23  
Month to date heating degree days 213 210  
Since 1 July heating degree days 853 816  
Cooling Degree Days 0 0  
Month to date cooling degree days 0 0  
Year to date cooling degree days 590 564  
Moisture  
Dew Point 28 °F    
Average Humidity 59    
Maximum Humidity 75    
Minimum Humidity 42    
Precipitation  
Precipitation 0.00 in 0.09 in 0.90 in (2006)
Month to date precipitation 0.74 1.03  
Year to date precipitation 26.98 31.86  
Sea Level Pressure  
Sea Level Pressure 30.24 in    
Wind  
Wind Speed 8 mph (WSW)    
Max Wind Speed 17 mph    
Max Gust Speed 23 mph    
Visibility 10 miles    
Events      
T = Trace of Precipitation, MM = Missing Value Source: NWS Daily Summary

Daily Weather History Graph

Daily Weather History Graph

Search for Another Location

Airport or City:

Trip Planner

Search our weather history database for the weather conditions in past years. The results will help you decide how hot, cold, wet, or windy it might be!

Date:

Astronomy

Nov. 10, 2013 Rise Set
Actual Time 6:36 AM CST 4:33 PM CST
Civil Twilight 6:06 AM CST 5:03 PM CST
Nautical Twilight 5:32 AM CST 5:37 PM CST
Astronomical Twilight 4:59 AM CST 6:10 PM CST
Moon 12:47 PM CST (11/10) No Moon Set
Length of Visible Light 10h 57m
Length of Day
9h 57m
First Quarter, 56% of the Moon is Illuminated
Nov 10
First Quarter
Nov 17
Full
Nov 25
Last Quarter
Dec 2
New
Dec 9
First Quarter

Hourly Weather History & Observations

Time (CST) Temp. Windchill Dew Point Humidity Pressure Visibility Wind Dir Wind Speed Gust Speed Precip Events Conditions
12:52 AM 39.9 °F 33.4 °F 25.0 °F 55% 30.09 in 10.0 mi West 10.4 mph 18.4 mph N/A   Overcast
1:52 AM 37.0 °F 31.0 °F 25.0 °F 62% 30.12 in 10.0 mi West 8.1 mph - N/A   Clear
2:52 AM 36.0 °F 29.6 °F 26.1 °F 67% 30.14 in 10.0 mi West 8.1 mph - N/A   Clear
3:52 AM 35.1 °F 28.6 °F 26.1 °F 70% 30.16 in 10.0 mi West 8.1 mph - N/A   Clear
4:52 AM 34.0 °F 27.2 °F 26.1 °F 73% 30.20 in 10.0 mi West 8.1 mph - N/A   Mostly Cloudy
5:52 AM 36.0 °F 29.6 °F 27.0 °F 70% 30.22 in 10.0 mi West 8.1 mph 17.3 mph N/A   Overcast
6:52 AM 36.0 °F 30.3 °F 27.0 °F 70% 30.24 in 10.0 mi West 6.9 mph - N/A   Mostly Cloudy
7:52 AM 39.0 °F 32.8 °F 28.0 °F 65% 30.27 in 10.0 mi West 9.2 mph 16.1 mph N/A   Clear
8:52 AM 42.1 °F 37.1 °F 28.0 °F 58% 30.30 in 10.0 mi WNW 8.1 mph 17.3 mph N/A   Clear
9:52 AM 44.1 °F 38.6 °F 27.0 °F 51% 30.32 in 10.0 mi NW 10.4 mph 18.4 mph N/A   Clear
10:52 AM 46.0 °F 41.9 °F 28.0 °F 50% 30.32 in 10.0 mi WNW 8.1 mph - N/A   Clear
11:52 AM 46.9 °F - 27.0 °F 46% 30.31 in 10.0 mi NW 6.9 mph - N/A   Clear
12:52 PM 48.0 °F - 27.0 °F 44% 30.30 in 10.0 mi North 5.8 mph - N/A   Clear
1:52 PM 48.0 °F - 27.0 °F 44% 30.29 in 10.0 mi Variable 4.6 mph - N/A   Clear
2:52 PM 48.0 °F - 27.0 °F 44% 30.29 in 10.0 mi SSW 8.1 mph - N/A   Clear
3:52 PM 46.0 °F 44.8 °F 28.0 °F 50% 30.29 in 10.0 mi Variable 3.5 mph - N/A   Clear
4:52 PM 42.1 °F 37.7 °F 28.9 °F 60% 30.28 in 10.0 mi SSW 6.9 mph - N/A   Clear
5:52 PM 41.0 °F 36.4 °F 30.0 °F 65% 30.28 in 10.0 mi SSW 6.9 mph - N/A   Clear
6:52 PM 37.9 °F 34.4 °F 28.9 °F 70% 30.29 in 9.0 mi SW 4.6 mph - N/A   Partly Cloudy
7:52 PM 39.9 °F 33.9 °F 30.9 °F 70% 30.26 in 9.0 mi SSW 9.2 mph - N/A   Overcast
8:52 PM 41.0 °F 34.7 °F 30.9 °F 67% 30.24 in 10.0 mi SSW 10.4 mph - N/A   Overcast
9:52 PM 42.1 °F 36.6 °F 30.0 °F 62% 30.22 in 10.0 mi SW 9.2 mph - N/A   Overcast
10:52 PM 42.1 °F 37.1 °F 30.0 °F 62% 30.22 in 10.0 mi SW 8.1 mph - N/A   Overcast
11:52 PM 43.0 °F 39.5 °F 30.0 °F 60% 30.19 in 10.0 mi SW 5.8 mph - N/A   Overcast